sat.trackr.live / text

‹ back to catalog

STARLINK-32931

NORAD 63199 · 2025-048S

PAYLOAD ACTIVE UNKNOWN

§ Identity

Operator
Country
US
Launch date
2025-03-13
Launch site
AFETR
Launch vehicle
Mass (kg)
RCS (m²)

Purposes: comms

External: N2YO · Heavens-Above · Gunter

§ Orbital elements

Epoch: 2026-05-25T00:05:16.794240Z

Period
94.27 min
Inclination
43.0010°
Eccentricity
0.0001262
Mean motion
15.27564828 rev/d
Perigee alt
482.2 km
Apogee alt
484.0 km
Semi-major
6,861.2 km
B*
6.1516e-4
RAAN
14.3192°
Arg perigee
268.9596°
Mean anomaly
91.1111°
Rev number
6,876

§ Raw data

STARLINK-329311 63199U 25048S   26145.00366660  .00016696  00000+0  61516-3 0  99912 63199  43.0010  14.3192 0001262 268.9596  91.1111 15.27564828 68763

JSON: /api/v1/satellites/63199 · /tle

For live sub-satellite position, see the globe view (requires WebGL).

§ Visibility from observer

Set your observer location to see the next 7 days of passes ≥ 10°. The values pass through the URL so the page stays shareable.

No JS? Fill the form by hand. The geolocation button needs JavaScript.